Regional Weather Roundup
Issued by NWS Grand Forks, ND

Home | Current Version | Previous Version | Graphics & Text | Print | Product List | Glossary On
Versions: 1 2 3 4 5 6 7 8 9 10 11 12 13 14 15 16 17 18 19 20 21 22 23 24 25 26 27 28 29 30 31 32 33 34 35 36 37 38 39 40 41 42 43 44 45 46 47 48 49 50
524
ASUS43 KFGF 301731
RWRFGF
PRAIRIE TO PINES  WEATHER ROUNDUP
NATIONAL WEATHER SERVICE EASTERN NORTH DAKOTA/GRAND FORKS ND
1200 PM CDT SUN APR 30 2017

 **SATELLITE DATA USED TO AUGMENT SKY COVER AT AUTOMATED STATIONS**
 *****  WEATHER ACROSS EASTERN NORTH DAKOTA  *****

CITY           SKY/WX    TMP DP  RH WIND       PRES   REMARKS
GRAND FORKS    FAIR      57  27  31 SE8       30.08F
GRAND FRKS AFB FAIR      56  27  33 SE10      30.08F
DEVILS LAKE    FAIR      57  25  29 E9        30.04F
FARGO          FAIR      58  20  22 E14       30.05F
WAHPETON ARPT  FAIR      54  16  22 NE12      30.02F
$$

 ***** WEATHER ACROSS CENTRAL AND WESTERN NORTH DAKOTA  *****

CITY           SKY/WX    TMP DP  RH WIND       PRES   REMARKS
BISMARCK       FAIR      60  22  23 VRB5      30.01F
MINOT          FAIR      64  21  19 SE7       29.97F
JAMESTOWN      FAIR      56  25  30 E13       30.03F
MINOT AFB      FAIR      64  23  20 SW10      29.96F
GARRISON         N/A     58  23  26 CALM      29.97F
WILLISTON      FAIR      63  23  21 SW13G24   29.95F
DICKINSON      FAIR      57  16  20 SW6       29.95F
HETTINGER      FAIR      58  22  24 E10       29.99F
$$

 *****  OTHER AIRPORT OBSERVATIONS IN OUR AREA  *****

CITY           SKY/WX    TMP DP  RH WIND       PRES   REMARKS
WALHALLA       NOT AVBL
GRAFTON AIRPOR FAIR      57  32  38 SE9G15    30.09F
VALLEY CITY AR FAIR      57  23  26 NE15      30.05F
CANDO          NOT AVBL
CAVALIER APRT  FAIR      59  28  31 SE8       30.06S
GWINNER        SUNNY     55  19  24 MISG      30.01F
SHEYENNE NWR     N/A     55  20  25 E14       29.95S
ROLLA          FAIR      61  19  20 S6G15     30.01F
 ***** THE ABOVE OBSERVATIONS ARE NON NWS ARE NOT QUALITY
       CONTROLLED AND MAY MIS-REPORT RAIN FOR SNOW...
$$

  *****  WEATHER ACROSS NORTHERN MINNESOTA  *****

CITY           SKY/WX    TMP DP  RH WIND       PRES   REMARKS
FLAG ISLAND    FAIR      43  28  56 S7        30.14S
WARROAD        FAIR      52  28  40 NE6       30.13S
ROSEAU         FAIR      55  23  28 SE6       30.11S
HALLOCK        FAIR      59  21  23 S10       30.08S
THF RVR FALLS  FAIR      54  22  28 SE12      30.11F
BAUDETTE       FAIR      53  19  26 SE9       30.13F
WASKISH        CLOUDY    55  25  30 NE14      30.11F
CROOKSTON      FAIR      57  23  26 SE10      30.07F
STEPHEN NDAWN    N/A     57  27  30 SE12        N/A
GREENBUSH NDAW   N/A     55  27  33 SE8         N/A
$$
  *****  WEATHER ACROSS CENTRAL AND WEST MINNESOTA  *****

CITY           SKY/WX    TMP DP  RH WIND       PRES   REMARKS
FOSSTON        FAIR      55  19  24 E7G17     30.08F
BEMIDJI        FAIR      52  20  28 E15       30.09F
PARK RAPIDS    FAIR      51  16  24 E10       30.07F
ELBOW LAKE     FAIR      51  21  30 NE13G21   30.02F
WADENA         FAIR      50  23  34 E15G22    30.04F
DETROIT LAKES  FAIR      52  21  30 E9G20     30.06F
MOORHEAD       FAIR      55  18  22 E13G20    30.05F
FERGUS FALLS   FAIR      52  23  32 E12G20    30.01F
MORRIS MN      FAIR      50  25  37 E13G22    30.00F
STAPLES        FAIR      48  19  32 E12G17    30.07S
$$
  *****  WEATHER ELSEWHERE ACROSS MINNESOTA  *****

CITY           SKY/WX    TMP DP  RH WIND       PRES   REMARKS
DULUTH         PTSUNNY   45  27  49 NE12      30.11S
INTRNTL FALLS  FAIR      50  22  33 E15       30.15F
ELY            FAIR      48  16  27 E5        30.13F
CLOQUET        FAIR      45  21  39 E13       30.09F
WHEATON        FAIR      54  14  20 NE10      30.02F
BRAINERD       FAIR      47  23  38 NE12G22   30.08F
HIBBING        FAIR      48  22  35 NE12      30.13R
ALEXANDRIA     FAIR      47  22  37 E15       30.04F
SAINT CLOUD    CLOUDY    44  27  51 N10       30.05F
MINNEAPOLIS    LGT RAIN  43  33  68 N10G21    30.01S
$$

  *****  WEATHER ACROSS SOUTH DAKOTA  *****

CITY           SKY/WX    TMP DP  RH WIND       PRES   REMARKS
SIOUX FALLS    LGT RAIN  41  40  96 NE22G28   29.89F
BROOKINGS      CLOUDY    43  27  53 NE15G26   29.93F
WATERTOWN      FAIR      46  27  47 NE18G28   29.95F
HURON          FAIR      50  28  42 NE16      29.94F
SISSETON         N/A     53  24  32 E15       30.00F
ABERDEEN       FAIR      53  19  26 NE21G26   30.00F
MITCHELL       CLOUDY    48  29  47 NE17      29.93F
PIERRE         FAIR      54  25  32 N10       29.96F
MOBRIDGE       NOT AVBL
RAPID CITY     FAIR      54  21  27 E9        30.01R
$$

  *****  SOME WEATHER IN NEARBY STATES *****

CITY           SKY/WX    TMP DP  RH WIND       PRES   REMARKS
GLASGOW MT     FAIR      57  31  37 W12       29.88F
GREAT FALLS MT FAIR      51  32  48 SW22      29.92F
CHEYENNE WY    FAIR      45  18  34 NW23G40   29.97R
SCOTTSBLUFF NE FAIR      50  21  32 N22G29    29.98F
OMAHA NE       LGT RAIN  42  37  82 NE24G39   29.60F
DES MOINES IA  DRIZZLE   43  40  89 E23G29    29.68F
DAVENPORT IA   LGT RAIN  45  43  93 NE20      29.79F
CHICAGO IL     LGT RAIN  47  44  90 N17       29.81F FOG
EAU CLAIRE WI  CLOUDY    46  33  60 E12       29.98F
LA CROSSE WI   CLOUDY    45  37  73 E8        29.96F
$$

  *****  SOME NATIONAL WEATHER *****

CITY           SKY/WX    TMP DP  RH WIND       PRES   REMARKS
LA GUARDIA NY  CLOUDY    62  41  46 SE16      30.25R
RALEIGH NC     PTSUNNY   82  67  60 SW15      30.19S
ATLANTA GA     PTSUNNY   76  68  76 S8        30.11F
NEW ORLEANS LA TSTM      71  69  93 S10       29.89S FOG
OKLAHOMA CITY  LGT RAIN  48  38  68 SW26G38   29.57F
ALBUQUERQUE NM FAIR      47  32  56 CALM      30.10S
SALT LAKE CITY CLOUDY    55  28  35 S9        30.17F
LOS ANGELES CA FAIR      77  29  17 VRB6      30.08S
BOISE ID       PTSUNNY   53  36  52 W3        30.15R
SEATTLE WA     CLOUDY    48  41  76 S6        30.25R
$$

*** WEATHER ACROSS MANITOBA...SASKATCHEWAN AND ONTARIO ***
                ***ONTARIO***

CITY           SKY/WX    TMP DP  RH WIND       PRES   REMARKS
GERALDTON      PTSUNNY   48  12  23 NE6       30.21F
THUNDER BAY    PTSUNNY   45  28  53 E10       30.22F
SIOUX LOOKOUT  CLOUDY    48  16  27 S6        30.16F
TORONTO        CLOUDY    41  32  70 E14G23    30.12F
BIG TROUT LK   MOSUNNY   52  21  30 S9        30.08F
PICKLE LAKE    CLOUDY    50  16  25 S15       30.16F
DRYDEN         PTSUNNY   50  16  25 S8        30.15F
KENORA         PTSUNNY   50  19  29 SW12      30.14F
$$
                *** MANITOBA***

CITY           SKY/WX    TMP DP  RH WIND       PRES   REMARKS
BRANDON        MOSUNNY   61  30  31 SW9       29.98F
DAUPHIN        SUNNY     59  36  41 VRB3      29.96F
ISLAND LAKE    MOSUNNY   54  28  37 W8        30.02F
PILOT MOUND      N/A     63  18  17 SW10G18     N/A
THE PAS        MOSUNNY   50  36  57 N5        29.97F
THOMPSON       MOSUNNY   50  23  34 VRB5      30.03F
WINNIPEG       MOSUNNY   63  23  22 S14       30.05F
LYNN LAKE      SUNNY     46  21  36 S9        29.99F
CHURCHILL      PTSUNNY   43  27  52 SW13      30.00F
GILLAM         MOSUNNY   48  21  34 NE7       30.06F
$$
                ***SASKATCHEWAN***

CITY           SKY/WX    TMP DP  RH WIND       PRES   REMARKS
ESTEVAN        MOSUNNY   61  28  29 SW17G25   29.93F
KINDERSLEY     PTSUNNY   50  36  57 S10       29.77F
LLOYDMINSTER   PTSUNNY   48  39  71 E13       29.80F
PRINCE ALBERT  PTSUNNY   54  37  54 SE12G17   29.89F
REGINA         PTSUNNY   57  39  51 SE12      29.87F
YORKTON        PTSUNNY   57  36  44 SW7       29.91F
N. BATTLEFORD  SUNNY     54  37  54 SE16      29.82F
LA RONGE       SUNNY     46  27  46 NE12      29.94F
SASKATOON      CLOUDY    57  39  51 E10       29.84F
SWIFT CURRENT  PTSUNNY   50  37  62 SW13      29.81F
$$
NOTE: THESE ARE AUTOMATED STATIONS WITH LIMITED QUALITY CONTROL
      "FAIR" INDICATES FEW OR NO CLOUDS BELOW 12,000 FEET WITH NO
      SIGNIFICANT WEATHER AND/OR OBSTRUCTIONS TO VISIBILITY.
      SKY/WX - SKY CONDITION AND SIGNIFICANT WEATHER.
      TMP - AIR TEMPERATURE.    DP   - DEWPOINT TEMPERATURE.
      RH  - RELATIVE HUMIDITY.  PRES - PRESSURE.
      HX  - HEAT INDEX.         WCI  - WIND CHILL INDEX.
$




USA.gov is the U.S. government's official web portal to all federal, state and local government web resources and services.